Date,TemperatureHighF,TemperatureAvgF,TemperatureLowF,DewpointHighF,DewpointAvgF,DewpointLowF,HumidityHigh,HumidityAvg,HumidityLow,PressureMaxIn,PressureMinIn,WindSpeedMaxMPH,WindSpeedAvgMPH,GustSpeedMaxMPH,PrecipitationSumIn
2013-3-1,50.8,36.2,26.1,27.3,21.5,13.2,78,57,36,30.20,30.05,0,0,0,0.00
2013-3-2,59.8,46.3,28.1,32.5,26.2,22.4,82,50,27,30.17,29.97,0,0,0,0.00
2013-3-3,61.0,49.8,37.1,26.6,24.6,22.1,63,40,24,29.90,29.66,0,0,0,0.00
2013-3-4,48.6,37.9,27.0,27.5,25.4,19.8,78,63,42,29.96,29.61,0,0,0,0.00
2013-3-5,38.5,25.7,10.4,19.9,15.2,4.7,78,65,47,30.15,30.07,0,0,0,0.00
2013-3-6,53.3,51.0,47.5,31.9,31.2,30.1,53,47,43,29.88,29.85,0,0,0,0.00
2013-3-7,64.1,46.2,27.5,33.0,28.1,22.4,81,52,23,29.91,29.81,0,0,0,0.00
2013-3-8,45.9,37.9,30.6,31.5,28.2,24.0,81,69,57,29.87,29.75,0,0,0,0.00
2013-3-9,34.9,31.5,24.8,31.5,27.1,18.4,91,84,72,29.96,29.62,0,0,0,0.00
2013-3-10,49.0,38.6,16.6,25.7,22.0,10.5,78,53,33,30.03,29.91,0,0,0,0.00
2013-3-11,56.0,43.2,32.6,30.3,21.7,15.9,84,44,27,30.03,29.82,0,0,0,0.00
2013-3-12,43.6,34.3,26.6,28.5,25.5,22.7,89,71,53,30.17,30.03,0,0,0,0.00
2013-3-13,47.7,31.3,24.8,35.2,26.0,22.3,90,82,51,30.18,30.01,0,0,0,0.00
2013-3-14,41.8,40.1,39.1,31.2,30.1,28.7,73,68,64,30.12,30.09,0,0,0,0.00
2013-3-15,76.1,70.1,59.2,27.7,23.8,20.6,29,18,13,29.93,29.83,0,0,0,0.00
2013-3-16,43.4,40.7,37.8,32.8,31.5,30.0,74,70,66,29.94,29.74,0,0,0,0.00
2013-3-17,59.0,46.0,31.1,31.9,24.4,17.0,82,49,21,29.74,29.55,0,0,0,0.00
2013-3-18,49.7,40.1,32.8,16.7,11.8,5.8,44,32,23,29.87,29.77,0,0,0,0.00
2013-3-19,57.4,44.3,29.5,15.7,5.0,-7.5,54,21,7,30.19,29.84,0,0,0,0.00
2013-3-20,48.4,35.6,23.0,23.9,18.5,13.9,69,51,37,30.17,29.75,0,0,0,0.00
2013-3-21,58.9,46.4,35.6,37.1,22.6,11.4,65,40,21,29.75,29.52,0,0,0,0.00
2013-3-22,47.9,33.9,26.1,28.8,20.5,11.6,92,61,37,29.83,29.64,0,0,0,0.00
2013-3-23,28.4,25.2,22.7,23.7,20.0,16.6,91,81,63,29.99,29.80,0,0,0,0.00
2013-3-24,40.1,28.9,19.6,19.5,14.7,10.7,82,56,37,30.06,29.94,0,0,0,0.00
2013-3-25,40.3,26.1,12.4,19.4,14.2,5.6,79,62,41,30.14,30.03,0,0,0,0.00
2013-3-26,47.0,28.5,16.0,28.7,17.8,8.2,78,65,44,30.04,29.84,0,0,0,0.00
2013-3-27,52.6,36.7,28.8,38.6,29.1,22.7,83,74,52,30.00,29.91,0,0,0,0.00
2013-3-28,64.8,46.2,31.0,38.5,31.9,27.0,92,62,29,30.03,29.96,0,0,0,0.00
2013-3-29,67.7,48.7,37.4,38.2,31.5,27.5,79,56,25,30.04,29.97,0,0,0,0.00
2013-3-30,67.5,49.5,34.6,39.0,31.6,23.1,79,55,19,30.11,29.95,0,0,0,0.00
2013-3-31,70.2,49.6,32.8,35.5,29.6,25.1,82,54,20,30.09,29.88,0,0,0,0.00